Location: Lafig�re
(44.4503°N, 4.0357°E)
Time: 15:16:00
(UTC+00:00)

S-56A Canister/Altair - Pass Details

Date: 28 January 2021
Orbit: 631 x 2501 km, 38.9° (Epoch: 01 March)

Event Time Altitude Azimuth Distance (km) Brightness Sun altitude
Rises 00:51:38 0° 232° (SW) 3,455 - -61.3°
Reaches altitude 10° 00:54:41 10° 222° (SW) 2,310 - -61.1°
Maximum altitude 00:59:02 28° 163° (SSE) 1,250 - -60.7°
Drops below altitude 10° 01:02:51 10° 103° (ESE) 2,010 - -60.3°
Sets 01:05:19 0° 91° (E) 2,922 - -60.1°
